Waarnemingen

Advertentie
Mijn weer
Valdepena, Spanje (8351): temperatuur & dauwpunt: 19.01.2020 07:00:00 - 25.01.2020 07:00:00 (CET)Valdepena, Spanje (8351): windsnelheid & windstoten: 19.01.2020 07:00:00 - 25.01.2020 07:00:00 (CET)Valdepena, Spanje (8351): windrichting: 19.01.2020 07:00:00 - 25.01.2020 07:00:00 (CET)Valdepena, Spanje (8351): luchtdruk: 19.01.2020 07:00:00 - 25.01.2020 07:00:00 (CET)Valdepena, Spanje (8351): zicht: 19.01.2020 07:00:00 - 25.01.2020 07:00:00 (CET)Valdepena, Spanje (8351): Zonneschijnduur: 19.01.2020 07:00:00 - 25.01.2020 07:00:00 (CET)Valdepena, Spanje (8351): neerslag: 19.01.2020 07:00:00 - 25.01.2020 07:00:00 (CET)
Datum & Tijd tt [°C] td [°C] ff [km/u] ff [kn] fx [km/u] fx [kn] dd ppp [hPa] vv [km] sd [min] rr [mm]
25.01.2020 07:00:00 - - - - - - - - - - -
25.01.2020 06:00:00 6,5 4,3 4 2 13 7 ZO 1017,6 17 0 0,0
25.01.2020 05:00:00 6,1 3,6 4 2 11 6 OZO 1017,7 18 0 0,0
25.01.2020 04:00:00 7,4 4,6 4 2 17 9 ZO 1017,6 20 0 0,0
25.01.2020 03:00:00 7,3 4,6 4 2 10 5 ZO 1018,0 20 0 0,0
25.01.2020 02:00:00 7,2 4,6 3 2 11 6 ZO 1018,4 20 0 0,0
25.01.2020 01:00:00 7,2 4,6 4 2 12 6 O 1018,5 20 0 -
25.01.2020 00:00:00 7,3 4,8 5 3 14 7 OZO 1019,0 18 0 0,4
24.01.2020 23:00:00 6,5 3,2 8 4 16 8 NO 1019,2 19 0 0,0
24.01.2020 22:00:00 6,5 3,2 8 5 16 9 NNO 1019,4 20 0 0,0
24.01.2020 21:00:00 7,4 3,0 1 1 10 5 WNW 1019,0 20 0 0,0
24.01.2020 20:00:00 9,1 3,0 4 2 11 6 NO 1018,4 20 0 0,0
24.01.2020 19:00:00 8,8 3,6 3 2 5 3 NNO 1018,2 18 0 -
24.01.2020 18:00:00 10,4 3,4 2 1 13 7 O 1017,6 20 0 0,0
24.01.2020 17:00:00 11,3 2,9 6 3 13 7 ZZO 1017,6 20 0 0,0
24.01.2020 16:00:00 11,4 2,7 5 3 10 6 ZO 1017,8 20 5 0,0
24.01.2020 15:00:00 11,5 2,9 4 2 29 16 ZO 1018,0 20 26 0,0
24.01.2020 14:00:00 11,5 3,0 5 3 21 11 ZO 1018,7 20 54 0,0
24.01.2020 13:00:00 10,7 3,9 6 4 15 8 O 1020,0 20 27 -
24.01.2020 12:00:00 8,9 4,3 5 3 10 5 O 1021,3 20 0 0,0
24.01.2020 11:00:00 7,8 4,8 4 2 9 5 NO 1021,4 18 0 0,0
24.01.2020 10:00:00 6,7 3,9 4 2 11 6 NNO 1021,2 20 6 0,0
24.01.2020 09:00:00 5,4 3,6 5 3 9 5 N 1021,3 10 0 0,2
24.01.2020 08:00:00 5,5 3,4 2 1 7 4 O 1021,0 17 0 0,0
24.01.2020 07:00:00 5,6 3,4 3 1 11 6 O 1020,6 19 0 -
24.01.2020 06:00:00 5,3 3,4 3 1 4 2 O 1020,5 17 0 0,0
24.01.2020 05:00:00 5,1 3,0 1 1 3 2 O 1020,3 9 0 0,2
24.01.2020 04:00:00 4,9 2,5 0 0 6 4 N 1020,6 14 0 0,0
24.01.2020 03:00:00 5,4 2,3 3 2 18 10 ONO 1020,1 20 0 0,0
24.01.2020 02:00:00 5,0 2,1 10 6 16 9 NNO 1020,2 19 0 0,0
24.01.2020 01:00:00 4,4 1,7 14 7 18 10 NO 1020,6 19 0 -
24.01.2020 00:00:00 4,9 1,5 8 4 19 11 NO 1020,3 20 0 0,0
23.01.2020 23:00:00 5,2 1,5 10 5 16 9 NNO 1020,1 20 0 0,0
23.01.2020 22:00:00 6,8 1,9 8 4 14 8 ONO 1019,4 19 0 0,0
23.01.2020 21:00:00 7,6 4,3 4 2 10 6 NO 1018,8 15 0 0,0
23.01.2020 20:00:00 7,5 4,3 2 1 4 2 OZO 1018,5 13 0 0,0
23.01.2020 19:00:00 8,8 3,9 1 1 8 5 NNW 1017,7 15 0 -
23.01.2020 18:00:00 10,1 3,9 5 3 10 5 NNW 1017,0 17 0 0,0
23.01.2020 17:00:00 10,7 3,4 5 3 13 7 NNW 1016,7 17 0 0,0
23.01.2020 16:00:00 11,4 3,2 6 4 14 8 NNW 1016,3 20 0 0,0
23.01.2020 15:00:00 11,7 1,3 6 3 12 7 NNW 1016,2 20 41 0,0
23.01.2020 14:00:00 11,5 2,9 8 5 14 8 N 1016,7 20 54 0,0
23.01.2020 13:00:00 9,2 3,6 3 2 6 4 NNW 1018,2 16 7 -
23.01.2020 12:00:00 7,6 3,0 1 1 7 4 N 1019,4 16 4 0,0
23.01.2020 11:00:00 5,6 2,5 3 2 18 10 NNO 1020,0 19 17 0,0
23.01.2020 10:00:00 2,4 0,0 14 8 22 12 NO 1020,4 20 11 0,0
23.01.2020 09:00:00 0,9 -1,0 3 1 14 7 N 1020,1 20 0 0,0
23.01.2020 08:00:00 1,4 -0,7 3 2 13 7 W 1019,6 20 0 0,0
23.01.2020 07:00:00 1,5 -1,0 6 3 15 8 NNO 1019,1 20 0 -
23.01.2020 06:00:00 2,2 -0,3 9 5 14 8 NO 1018,8 20 0 0,0
23.01.2020 05:00:00 1,4 -0,7 3 1 8 4 OZO 1019,4 20 0 0,0
23.01.2020 04:00:00 1,7 -0,5 3 1 8 4 N 1019,4 20 0 0,0
23.01.2020 03:00:00 2,5 0,2 9 5 14 8 NNO 1019,0 20 0 0,0
23.01.2020 02:00:00 3,3 1,3 6 3 10 5 NNO 1018,9 20 0 0,0
23.01.2020 01:00:00 3,8 1,3 5 3 12 6 N 1018,7 20 0 -
23.01.2020 00:00:00 4,0 1,3 4 2 10 6 NNO 1018,9 20 0 0,0
22.01.2020 23:00:00 3,8 0,9 4 2 10 6 N 1018,5 20 0 0,0
22.01.2020 22:00:00 4,1 0,9 3 2 13 7 N 1018,2 20 0 0,0
22.01.2020 21:00:00 5,5 0,6 7 4 20 11 ONO 1017,2 20 0 0,0
22.01.2020 20:00:00 6,9 1,1 8 5 17 9 ONO 1016,7 20 0 0,0
22.01.2020 19:00:00 8,1 2,1 8 4 17 9 NO 1015,8 20 0 -
22.01.2020 18:00:00 9,4 1,7 9 5 16 9 ONO 1015,1 20 0 0,0
22.01.2020 17:00:00 10,5 1,3 7 4 23 13 NO 1014,5 20 22 0,0
22.01.2020 16:00:00 10,9 1,5 13 7 24 13 ONO 1014,5 20 28 0,0
22.01.2020 15:00:00 10,8 1,9 10 5 22 12 NO 1014,7 20 25 0,0
22.01.2020 14:00:00 10,6 2,9 10 6 27 15 NO 1015,4 20 42 0,0
22.01.2020 13:00:00 10,1 2,9 11 6 26 14 NO 1016,4 20 56 -
22.01.2020 12:00:00 9,4 2,9 11 6 27 14 NO 1017,0 20 60 0,0
22.01.2020 11:00:00 6,6 2,3 13 7 25 13 NO 1017,9 20 21 0,0
22.01.2020 10:00:00 3,9 1,5 10 5 21 11 NO 1018,3 20 0 0,0
22.01.2020 09:00:00 3,0 1,3 8 5 21 11 NO 1018,2 20 0 0,0
22.01.2020 08:00:00 1,4 0,4 5 3 10 5 NO 1018,4 20 0 0,0
22.01.2020 07:00:00 1,1 -0,3 2 1 11 6 O 1017,7 20 0 -
22.01.2020 06:00:00 1,2 0,0 3 1 8 4 O 1017,6 20 0 0,0
22.01.2020 05:00:00 1,6 0,4 4 2 7 4 N 1017,4 20 0 0,0
22.01.2020 04:00:00 2,1 0,6 3 2 12 6 N 1017,5 20 0 0,0
22.01.2020 03:00:00 2,0 0,6 3 2 6 3 N 1017,3 20 0 0,0
22.01.2020 02:00:00 2,3 1,1 4 2 13 7 N 1017,2 14 0 0,0
22.01.2020 01:00:00 2,7 1,3 9 5 18 10 NO 1017,1 19 0 -
22.01.2020 00:00:00 2,3 0,9 7 4 14 7 NNO 1017,4 17 0 0,0
21.01.2020 23:00:00 2,9 1,1 8 4 19 10 NNO 1016,9 19 0 0,0
21.01.2020 22:00:00 3,1 1,1 2 1 9 5 W 1017,0 20 0 0,0
21.01.2020 21:00:00 3,5 1,3 6 3 27 14 NNO 1016,2 20 0 0,0
21.01.2020 20:00:00 3,8 1,3 12 7 22 12 NNO 1015,4 20 0 0,0
21.01.2020 19:00:00 4,2 1,5 9 5 37 20 NNO 1015,0 20 0 -
21.01.2020 18:00:00 4,6 1,7 20 11 37 20 NNO 1014,6 20 0 0,0
21.01.2020 17:00:00 5,5 2,1 19 10 39 21 NNO 1013,6 20 0 0,0
21.01.2020 16:00:00 5,1 2,1 13 7 29 15 N 1012,7 20 0 0,0
21.01.2020 15:00:00 4,8 1,9 14 7 34 18 N 1013,8 20 4 0,0
21.01.2020 14:00:00 4,9 2,3 13 7 36 19 N 1014,0 20 6 0,2
21.01.2020 13:00:00 3,7 1,7 11 6 31 17 N 1015,6 20 0 -
21.01.2020 12:00:00 3,3 0,9 12 7 27 15 NNW 1016,7 20 0 0,0
21.01.2020 11:00:00 2,0 0,4 14 7 27 15 N 1017,5 20 0 0,0
21.01.2020 10:00:00 1,2 0,0 13 7 34 18 NNW 1017,5 20 0 0,0
21.01.2020 09:00:00 1,0 -0,3 11 6 25 13 NNW 1017,4 18 0 0,2
21.01.2020 08:00:00 1,3 -0,7 13 7 33 18 NNW 1017,8 11 0 0,4
21.01.2020 07:00:00 2,3 -0,5 13 7 29 15 NNW 1017,1 20 0 -
21.01.2020 06:00:00 2,7 0,9 12 7 27 15 NNW 1017,5 20 0 0,0
21.01.2020 05:00:00 2,9 0,9 14 8 27 15 N 1018,0 20 0 0,0
21.01.2020 04:00:00 2,9 0,6 9 5 34 18 N 1018,6 20 0 0,0
21.01.2020 03:00:00 2,8 0,4 13 7 41 22 N 1018,9 20 0 0,0
21.01.2020 02:00:00 3,1 0,4 16 9 34 19 N 1019,4 20 0 0,0
21.01.2020 01:00:00 3,3 0,6 15 8 31 17 N 1020,2 20 0 -
21.01.2020 00:00:00 3,2 0,9 14 8 33 18 N 1020,4 20 0 0,0
20.01.2020 23:00:00 3,3 1,3 15 8 32 18 N 1020,3 20 0 0,0
20.01.2020 22:00:00 3,7 1,5 17 9 37 20 N 1019,9 20 0 0,0
20.01.2020 21:00:00 3,8 1,7 14 7 29 16 N 1019,6 19 0 0,0
20.01.2020 20:00:00 4,0 2,1 8 4 24 13 N 1019,5 18 0 0,0
20.01.2020 19:00:00 4,1 1,9 14 7 33 18 N 1019,3 14 0 -
20.01.2020 18:00:00 4,7 1,3 16 8 33 18 N 1018,5 20 0 0,0
20.01.2020 17:00:00 4,0 1,1 16 9 37 20 N 1018,5 20 0 0,0
20.01.2020 16:00:00 3,9 0,6 14 8 35 19 N 1018,6 20 0 0,0
20.01.2020 15:00:00 4,0 0,2 14 8 35 19 N 1019,0 20 0 0,0
20.01.2020 14:00:00 3,5 -0,7 13 7 27 14 N 1019,4 20 0 0,0
20.01.2020 13:00:00 2,4 -2,5 12 7 37 20 NNW 1020,6 20 0 -
20.01.2020 12:00:00 0,9 -2,0 18 10 34 19 N 1021,4 20 0 0,0
20.01.2020 11:00:00 0,0 -2,5 16 9 42 23 NNW 1022,1 20 0 0,0
20.01.2020 10:00:00 0,5 -3,3 17 9 41 22 N 1021,1 20 0 0,0
20.01.2020 09:00:00 0,7 -5,1 14 7 35 19 NNW 1020,7 20 0 0,0
20.01.2020 08:00:00 0,7 -4,5 13 7 31 17 NNW 1021,1 20 0 0,0
20.01.2020 07:00:00 0,9 -4,8 15 8 37 20 NNW 1021,0 20 0 -
20.01.2020 06:00:00 0,9 -4,8 15 8 37 20 NNW 1021,4 20 0 0,0
20.01.2020 05:00:00 1,0 -4,8 17 9 39 21 NNW 1021,8 20 0 0,0
20.01.2020 04:00:00 1,1 -4,5 16 8 35 19 NNW 1022,0 20 0 0,0
20.01.2020 03:00:00 1,1 -4,2 16 9 40 22 NNW 1022,1 20 0 0,0
20.01.2020 02:00:00 1,2 -3,6 16 9 34 18 NNW 1022,6 20 0 0,0
20.01.2020 01:00:00 1,4 -2,7 14 7 36 20 NNW 1022,9 20 0 -
20.01.2020 00:00:00 1,4 -0,5 11 6 30 16 NNW 1023,2 20 0 0,0
19.01.2020 23:00:00 1,7 0,6 13 7 34 19 NNW 1023,2 20 0 0,0
19.01.2020 22:00:00 1,6 0,6 14 8 34 18 N 1022,9 20 0 0,4
19.01.2020 21:00:00 1,3 0,2 13 7 29 16 NNW 1022,6 19 0 0,2
19.01.2020 20:00:00 2,1 0,6 15 8 31 17 N 1022,2 15 0 0,8
19.01.2020 19:00:00 2,6 1,1 12 6 39 21 N 1021,8 8 0 -
19.01.2020 18:00:00 3,6 1,9 11 6 30 16 N 1020,6 5 0 1,2
19.01.2020 17:00:00 4,4 2,3 17 9 43 23 N 1019,8 8 0 0,4
19.01.2020 16:00:00 4,9 2,3 15 8 46 25 NNW 1019,1 20 0 0,2
19.01.2020 15:00:00 6,5 1,3 22 12 51 28 NNW 1018,2 20 0 0,0
19.01.2020 14:00:00 6,5 2,1 18 10 42 23 NNW 1018,6 20 0 0,0
19.01.2020 13:00:00 6,4 2,3 21 11 40 22 NNW 1019,1 20 0 -
19.01.2020 12:00:00 5,6 2,9 12 6 39 21 NW 1020,3 11 0 0,4
19.01.2020 11:00:00 5,6 2,9 11 6 21 11 NW 1020,3 11 0 0,4
19.01.2020 10:00:00 5,4 2,7 4 2 8 4 NW 1019,9 20 4 0,0
19.01.2020 09:00:00 3,6 1,3 1 1 6 3 ZW 1020,4 20 0 0,0
19.01.2020 08:00:00 4,6 1,9 3 2 11 6 NW 1020,1 20 0 0,0
19.01.2020 07:00:00 5,5 2,3 6 3 16 9 NW 1019,9 20 0 -

tt = temperatuur
td = dauwpunt
ff = windsnelheid
fx = windstoten
dd = windrichting
ppp = luchtdruk
vv = zicht
sd = Zonneschijnduur
rr = neerslag

Weerstations in de omgeving